Content
SEND FEEDBACK

Daily
Averages
Monthly
Summary
Greece

THESSALONIKI, GREECE


Home > Europe > Greece
Elevation: 13 feet     Latitude: 40 13N     Longitude: 022 58E

WEATHER
 
SELECT A DAY
Number of Records: 94,555;   Date Range: 7/3/96 - 9/15/14
 
SHARE

PRINT THIS DATA

[ ← Previous Day ]
WEATHER ALMANAC - JUNE 14, 2013
[ Next Day → ]
[ °C ]   °F
Weather ElementAverageHighLow
Temperature74.2 °F84.2 °F (3:50 pm)64.4 °F (4:50 am)
Dewpoint58.3 °F62.6 °F (12:50 am)51.8 °F (6:50 pm)
Humidity58.9 %83 % (12:50 am)35 % (3:50 pm)
Barometer29.90 in29.95 in (11:20 am)29.86 in (7:20 pm)
Wind Speed5.7 mph11.5 mph (8:20 am)
Weather ElementAverage
Visibility6.2 mi
Wind DirectionS (177.8 °)

Weather ElementTotal
Precipitation---
Cooling Degree Days9.3 (Base 65)
Growing Degree Days24.3 (Base 50)
Averaged from 51 records on June 14, 2013
WEATHER CONDITIONS BREAKOUT
WIND DIRECTION BREAKOUT
WEATHER BY HOUR - JUNE 14, 2013
[ °C ]   °F
Local TimeTemperatureDewpointHumidityBarometerVisibilityWind DirectionWind SpeedGust SpeedPrecipitationEventsConditions
12:50 AM68.0 °F62.6 °F83 %29.89 in6.2 miWNW (290°)4.6 mphScattered Clouds
1:20 AM69.8 °F60.8 °F73 %29.89 in6.2 miWNW (290°)4.6 mphScattered Clouds
1:50 AM68.0 °F60.8 °F78 %29.89 in6.2 miCalmScattered Clouds
2:20 AM66.2 °F59.0 °F78 %29.89 in6.2 miCalmScattered Clouds
2:50 AM66.2 °F59.0 °F78 %29.89 in6.2 miCalmScattered Clouds
3:00 AM66.0 °F60.0 °F74 %29.89 in6.0 miCalmPartly Cloudy
3:20 AM68.0 °F60.8 °F78 %29.89 in6.2 miCalmScattered Clouds
3:50 AM66.2 °F60.8 °F83 %29.89 in6.2 miCalmScattered Clouds
4:20 AM66.2 °F60.8 °F83 %29.89 in6.2 miCalmScattered Clouds
4:50 AM64.4 °F59.0 °F83 %29.89 in6.2 miCalmScattered Clouds
5:20 AM64.4 °F59.0 °F83 %29.89 in6.2 miCalmScattered Clouds
5:50 AM64.4 °F59.0 °F83 %29.89 in6.2 miCalmMostly Cloudy
6:20 AM68.0 °F59.0 °F73 %29.89 in6.2 miCalmMostly Cloudy
6:50 AM71.6 °F55.4 °F57 %29.89 in6.2 miNW (310°)4.6 mphMostly Cloudy
7:20 AM71.6 °F57.2 °F60 %29.92 in6.2 miNW (320°)8.1 mphMostly Cloudy
7:50 AM71.6 °F59.0 °F64 %29.92 in6.2 miWNW (300°)10.4 mphMostly Cloudy
8:20 AM71.6 °F59.0 °F64 %29.92 in6.2 miNW (310°)11.5 mphMostly Cloudy
8:50 AM71.6 °F59.0 °F64 %29.92 in6.2 miWNW (300°)8.1 mphMostly Cloudy
9:00 AM72.0 °F58.0 °F53 %29.93 in6.0 miWNW (300°)8.1 mphPartly Cloudy
9:20 AM75.2 °F57.2 °F53 %29.92 in6.2 miWNW (290°)6.9 mphMostly Cloudy
9:50 AM73.4 °F57.2 °F57 %29.92 in6.2 miWest (260°)9.2 mphMostly Cloudy
10:20 AM73.4 °F59.0 °F61 %29.92 in6.2 miWest (280°)9.2 mphMostly Cloudy
10:50 AM73.4 °F60.8 °F65 %29.92 in6.2 miWest (260°)8.1 mphMostly Cloudy
11:20 AM75.2 °F59.0 °F57 %29.95 in6.2 miWNW (300°)8.1 mphMostly Cloudy
11:50 AM77.0 °F60.8 °F57 %29.92 in6.2 miWest (280°)8.1 mphMostly Cloudy
12:20 PM77.0 °F60.8 °F57 %29.92 in6.2 miWest (260°)11.5 mphMostly Cloudy
12:50 PM77.0 °F60.8 °F57 %29.92 in6.2 miWSW (250°)9.2 mphPartly Cloudy
1:20 PM78.8 °F59.0 °F51 %29.92 in6.2 miWSW (250°)9.2 mphPartly Cloudy
1:50 PM80.6 °F59.0 °F48 %29.89 in6.2 miWSW (250°)10.4 mphScattered Clouds
2:20 PM80.6 °F59.0 °F48 %29.89 in6.2 miWest (260°)10.4 mphScattered Clouds
2:50 PM80.6 °F60.8 °F51 %29.89 in6.2 miWest (260°)9.2 mphScattered Clouds
3:00 PM81.0 °F61.0 °F41 %29.91 in6.0 miWest (260°)9.2 mphPartly Cloudy
3:20 PM82.4 °F59.0 °F45 %29.89 in6.2 miWSW (250°)9.2 mphScattered Clouds
3:50 PM84.2 °F53.6 °F35 %29.89 in6.2 miWest (260°)8.1 mphScattered Clouds
4:20 PM82.4 °F53.6 °F37 %29.89 in6.2 miSouth (180°)8.1 mphMostly Cloudy
4:50 PM80.6 °F55.4 °F42 %29.89 in6.2 miVariable3.5 mphScattered Clouds
5:20 PM82.4 °F53.6 °F37 %29.89 in6.2 miSSE (150°)5.8 mphMostly Cloudy
5:50 PM78.8 °F59.0 °F51 %29.89 in6.2 miEast (100°)9.2 mphScattered Clouds
6:20 PM80.6 °F53.6 °F39 %29.89 in6.2 miWSW (240°)5.8 mphScattered Clouds
6:50 PM80.6 °F51.8 °F37 %29.89 in6.2 miSouth (190°)8.1 mphScattered Clouds
7:20 PM80.6 °F53.6 °F39 %29.86 in6.2 miSSE (160°)5.8 mphScattered Clouds
7:50 PM80.6 °F53.6 °F39 %29.86 in6.2 miSSE (160°)5.8 mphScattered Clouds
8:20 PM78.8 °F55.4 °F44 %29.89 in6.2 miSSW (210°)5.8 mphScattered Clouds
8:50 PM77.0 °F55.4 °F47 %29.89 in6.2 miWSW (250°)4.6 mphScattered Clouds
9:00 PM77.0 °F55.0 °F37 %29.91 in6.0 miWSW (250°)4.6 mphPartly Cloudy
9:20 PM75.2 °F60.8 °F61 %29.92 in6.2 miWest (280°)9.2 mphScattered Clouds
9:50 PM75.2 °F62.6 °F65 %29.92 in6.2 miCalmScattered Clouds
10:20 PM73.4 °F60.8 °F65 %29.92 in6.2 miVariable3.5 mphScattered Clouds
10:50 PM73.4 °F59.0 °F61 %29.92 in6.2 miESE (110°)3.5 mphScattered Clouds
11:20 PM71.6 °F59.0 °F64 %29.92 in6.2 miESE (110°)4.6 mphScattered Clouds
11:50 PM69.8 °F57.2 °F64 %29.92 in6.2 miESE (110°)5.8 mphScattered Clouds
Hourly data recorded from LGTS, located miles away from Thessaloniki, Greece







STORIES FROM OUR PARTNERS